Wetterdaten: Jahr 2018
Datum Temp. A. Feuchte A. Luftdruck Regen Wind Richtung Sonnenschein UV Solar Windben
01.01.2018 6,8 C 79 % 998,8 hPa 1,8 l/m 7,8 km/h SW 2,48 h 0,7 UV-I 96 W/m 17,0 km/h
02.01.2018 5,8 C 84 % 1007,8 hPa 5,6 l/m 9,5 km/h W-SW 0,08 h 0,6 UV-I 47 W/m 17,4 km/h
03.01.2018 6,8 C 86 % 990,8 hPa 17,2 l/m 19,4 km/h W-SW 0,00 h 0,6 UV-I 28 W/m 33,9 km/h
04.01.2018 8,7 C 79 % 992,6 hPa 0,8 l/m 16,3 km/h W-SW 0,00 h 0,5 UV-I 43 W/m 30,3 km/h
05.01.2018 8,0 C 79 % 997,5 hPa 0,0 l/m 8,6 km/h W-SW 1,50 h 0,7 UV-I 92 W/m 20,8 km/h
06.01.2018 6,0 C 83 % 1011,0 hPa 0,0 l/m 1,6 km/h S-SO 0,37 h 0,6 UV-I 63 W/m 5,7 km/h
07.01.2018 2,3 C 84 % 1027,1 hPa 0,0 l/m 9,0 km/h NO 0,00 h 0,6 UV-I 53 W/m 19,4 km/h
08.01.2018 3,1 C 80 % 1024,5 hPa 0,0 l/m 12,0 km/h O-NO 3,08 h 0,7 UV-I 102 W/m 29,1 km/h
09.01.2018 5,8 C 83 % 1011,8 hPa 0,0 l/m 7,4 km/h O 0,00 h 0,5 UV-I 61 W/m 17,8 km/h
10.01.2018 7,1 C 81 % 1010,5 hPa 0,0 l/m 3,7 km/h O 1,75 h 0,7 UV-I 89 W/m 8,9 km/h
11.01.2018 6,4 C 90 % 1018,2 hPa 0,0 l/m 2,6 km/h W 0,08 h 0,5 UV-I 58 W/m 5,7 km/h
12.01.2018 5,0 C 93 % 1026,2 hPa 0,0 l/m 2,0 km/h O-NO 0,00 h 0,0 UV-I 25 W/m 4,9 km/h
13.01.2018 3,9 C 84 % 1025,7 hPa 0,0 l/m 9,2 km/h O-NO 1,67 h 0,7 UV-I 87 W/m 18,6 km/h
14.01.2018 2,1 C 72 % 1022,2 hPa 0,0 l/m 6,0 km/h O 5,75 h 0,8 UV-I 144 W/m 17,0 km/h
15.01.2018 4,0 C 80 % 1002,0 hPa 0,8 l/m 12,8 km/h O-SO 0,50 h 0,6 UV-I 70 W/m 23,4 km/h
16.01.2018 3,6 C 87 % 992,2 hPa 11,0 l/m 9,7 km/h SW 0,17 h 0,6 UV-I 38 W/m 21,4 km/h
17.01.2018 2,0 C 92 % 1000,9 hPa 9,2 l/m 9,5 km/h W-SW 0,00 h 0,6 UV-I 36 W/m 21,8 km/h
18.01.2018 3,8 C 85 % 996,9 hPa 2,2 l/m 19,1 km/h W-SW 0,00 h 0,5 UV-I 33 W/m 31,1 km/h
19.01.2018 1,5 C 93 % 1007,6 hPa 4,2 l/m 6,1 km/h SW 0,00 h 0,6 UV-I 47 W/m 13,4 km/h
20.01.2018 2,1 C 91 % 1002,7 hPa 2,8 l/m 3,3 km/h SW 2,17 h 0,8 UV-I 113 W/m 6,9 km/h
21.01.2018 1,9 C 91 % 1014,1 hPa 2,4 l/m 3,4 km/h W-SW 0,08 h 0,6 UV-I 49 W/m 8,1 km/h
22.01.2018 5,1 C 93 % 1009,9 hPa 1,6 l/m 10,6 km/h W-SW 0,00 h 0,0 UV-I 25 W/m 18,2 km/h
23.01.2018 7,9 C 84 % 1020,0 hPa 0,2 l/m 7,8 km/h SW 0,00 h 0,6 UV-I 69 W/m 17,0 km/h
24.01.2018 12,4 C 75 % 1013,0 hPa 0,0 l/m 11,2 km/h S-SW 2,00 h 0,9 UV-I 102 W/m 27,5 km/h
25.01.2018 7,8 C 87 % 1012,4 hPa 2,0 l/m 4,1 km/h S-SW 0,00 h 0,5 UV-I 58 W/m 9,7 km/h
26.01.2018 6,9 C 90 % 1020,5 hPa 0,0 l/m 0,9 km/h W-SW 0,75 h 0,7 UV-I 80 W/m 2,1 km/h
27.01.2018 6,8 C 77 % 1028,6 hPa 0,0 l/m 6,1 km/h SW 1,42 h 0,7 UV-I 94 W/m 17,8 km/h
28.01.2018 9,2 C 88 % 1028,1 hPa 0,0 l/m 15,4 km/h W-SW 0,00 h 0,5 UV-I 33 W/m 26,7 km/h
29.01.2018 8,7 C 85 % 1023,2 hPa 2,6 l/m 19,5 km/h W-SW 0,00 h 0,5 UV-I 24 W/m 32,3 km/h
30.01.2018 4,6 C 82 % 1025,7 hPa 0,0 l/m 7,9 km/h W-SW 0,58 h 0,7 UV-I 82 W/m 15,4 km/h
31.01.2018 6,8 C 88 % 1002,7 hPa 6,8 l/m 10,2 km/h SW 0,08 h 0,6 UV-I 55 W/m 23,5 km/h
01.02.2018 2,6 C 85 % 1000,3 hPa 2,0 l/m 9,3 km/h SW 1,75 h 0,8 UV-I 108 W/m 19,0 km/h
02.02.2018 3,6 C 91 % 1003,1 hPa 1,8 l/m 8,1 km/h SW 0,00 h 0,5 UV-I 31 W/m 16,6 km/h
03.02.2018 1,6 C 91 % 1006,3 hPa 1,0 l/m 3,1 km/h W 0,00 h 0,6 UV-I 54 W/m 8,6 km/h
04.02.2018 -1,2 C 87 % 1021,6 hPa 0,0 l/m 2,0 km/h W-NW 0,58 h 0,8 UV-I 83 W/m 5,3 km/h
05.02.2018 0,4 C 74 % 1026,1 hPa 0,0 l/m 5,9 km/h O-NO 4,75 h 1,2 UV-I 169 W/m 12,6 km/h
06.02.2018 -0,8 C 76 % 1015,1 hPa 0,0 l/m 5,7 km/h O-NO 2,25 h 0,9 UV-I 121 W/m 11,0 km/h
07.02.2018 -0,5 C 76 % 1017,1 hPa 0,0 l/m 2,6 km/h NO 2,00 h 1,0 UV-I 121 W/m 5,3 km/h
08.02.2018 -2,5 C 81 % 1020,3 hPa 0,0 l/m 3,2 km/h O 6,75 h 1,1 UV-I 190 W/m 6,5 km/h
09.02.2018 -1,2 C 77 % 1014,7 hPa 0,0 l/m 4,7 km/h O-SO 6,75 h 1,2 UV-I 201 W/m 9,8 km/h
10.02.2018 2,2 C 87 % 1014,1 hPa 0,0 l/m 3,9 km/h O 0,00 h 0,6 UV-I 54 W/m 9,8 km/h
11.02.2018 2,8 C 85 % 1002,1 hPa 1,2 l/m 7,8 km/h SW 0,08 h 0,9 UV-I 57 W/m 15,8 km/h
12.02.2018 1,6 C 87 % 1013,3 hPa 5,8 l/m 5,3 km/h SW 2,83 h 1,2 UV-I 158 W/m 10,1 km/h
13.02.2018 0,3 C 74 % 1013,8 hPa 0,0 l/m 6,0 km/h O 8,50 h 1,5 UV-I 260 W/m 17,0 km/h
14.02.2018 0,7 C 62 % 1017,6 hPa 0,0 l/m 11,0 km/h O 7,83 h 1,5 UV-I 256 W/m 20,2 km/h
15.02.2018 3,9 C 81 % 1014,3 hPa 0,4 l/m 5,4 km/h O-SO 0,00 h 0,7 UV-I 63 W/m 11,8 km/h
16.02.2018 3,4 C 79 % 1025,4 hPa 0,0 l/m 5,7 km/h SW 3,17 h 1,1 UV-I 154 W/m 11,0 km/h
17.02.2018 1,5 C 80 % 1024,6 hPa 0,0 l/m 3,3 km/h O 1,67 h 1,0 UV-I 133 W/m 6,1 km/h
18.02.2018 2,5 C 73 % 1026,1 hPa 0,0 l/m 5,6 km/h O 6,92 h 1,5 UV-I 245 W/m 11,4 km/h
19.02.2018 1,2 C 76 % 1019,3 hPa 0,0 l/m 2,9 km/h O 4,08 h 1,3 UV-I 184 W/m 7,7 km/h
20.02.2018 1,6 C 71 % 1020,1 hPa 0,0 l/m 3,8 km/h O-NO 7,00 h 1,4 UV-I 229 W/m 7,3 km/h
21.02.2018 0,6 C 73 % 1025,0 hPa 0,0 l/m 3,5 km/h NO 6,75 h 1,4 UV-I 236 W/m 8,5 km/h
22.02.2018 0,5 C 73 % 1024,3 hPa 0,0 l/m 4,6 km/h NO 7,92 h 1,5 UV-I 255 W/m 10,5 km/h
23.02.2018 -0,6 C 58 % 1023,8 hPa 0,0 l/m 8,4 km/h NO 8,08 h 1,5 UV-I 271 W/m 15,4 km/h
24.02.2018 -1,8 C 56 % 1028,3 hPa 0,0 l/m 11,5 km/h O-NO 5,17 h 1,2 UV-I 183 W/m 21,8 km/h
25.02.2018 -3,9 C 65 % 1030,6 hPa 0,0 l/m 6,3 km/h O-NO 6,83 h 1,5 UV-I 254 W/m 13,8 km/h
26.02.2018 -3,4 C 74 % 1027,3 hPa 0,0 l/m 6,5 km/h O-NO 6,00 h 1,5 UV-I 229 W/m 15,4 km/h
27.02.2018 -5,0 C 77 % 1021,9 hPa 0,0 l/m 4,5 km/h O-NO 6,33 h 1,5 UV-I 272 W/m 9,3 km/h
28.02.2018 -7,5 C 63 % 1022,3 hPa 0,0 l/m 11,6 km/h O-NO 6,00 h 1,4 UV-I 254 W/m 21,4 km/h
01.03.2018 -4,8 C 52 % 1010,6 hPa 0,0 l/m 19,0 km/h O-NO 8,33 h 1,6 UV-I 281 W/m 35,1 km/h
02.03.2018 -4,0 C 58 % 1001,8 hPa 0,0 l/m 11,4 km/h O-NO 8,17 h 1,5 UV-I 284 W/m 20,6 km/h
03.03.2018 -3,1 C 73 % 1000,3 hPa 0,0 l/m 11,6 km/h O-NO 0,00 h 0,8 UV-I 87 W/m 23,0 km/h
04.03.2018 4,3 C 81 % 997,0 hPa 0,0 l/m 12,1 km/h O 5,08 h 1,8 UV-I 230 W/m 24,6 km/h
05.03.2018 6,5 C 73 % 995,1 hPa 0,0 l/m 4,2 km/h O-SO 7,17 h 1,7 UV-I 270 W/m 9,8 km/h
06.03.2018 7,5 C 67 % 990,9 hPa 0,0 l/m 1,4 km/h O 7,33 h 1,8 UV-I 267 W/m 3,7 km/h
07.03.2018 7,6 C 74 % 995,0 hPa 0,0 l/m 6,7 km/h W-SW 3,92 h 1,8 UV-I 221 W/m 13,0 km/h
08.03.2018 5,5 C 81 % 1001,0 hPa 1,0 l/m 8,8 km/h SW 2,83 h 1,6 UV-I 184 W/m 22,6 km/h
09.03.2018 6,7 C 76 % 1006,2 hPa 0,2 l/m 7,8 km/h SW 2,17 h 1,5 UV-I 174 W/m 14,6 km/h
10.03.2018 12,3 C 80 % 1001,0 hPa 2,2 l/m 6,3 km/h O 2,00 h 1,6 UV-I 183 W/m 15,0 km/h
11.03.2018 12,4 C 80 % 994,9 hPa 0,0 l/m 5,6 km/h O 0,33 h 1,0 UV-I 102 W/m 12,9 km/h
12.03.2018 11,0 C 78 % 993,2 hPa 0,0 l/m 4,3 km/h SW 1,67 h 1,3 UV-I 142 W/m 9,7 km/h
13.03.2018 6,1 C 90 % 1003,8 hPa 3,0 l/m 10,2 km/h W-SW 0,00 h 0,9 UV-I 76 W/m 19,0 km/h
14.03.2018 4,2 C 79 % 1010,4 hPa 0,0 l/m 8,6 km/h W-SW 2,17 h 1,2 UV-I 160 W/m 16,2 km/h
15.03.2018 6,5 C 71 % 1000,1 hPa 0,0 l/m 15,6 km/h O-NO 7,75 h 2,0 UV-I 303 W/m 31,4 km/h
16.03.2018 1,3 C 86 % 1005,6 hPa 6,8 l/m 10,2 km/h O-NO 0,00 h 0,9 UV-I 86 W/m 19,8 km/h
17.03.2018 -3,0 C 72 % 1009,4 hPa 0,0 l/m 18,3 km/h NO 0,00 h 1,0 UV-I 109 W/m 35,5 km/h
18.03.2018 -1,8 C 52 % 1012,8 hPa 0,0 l/m 13,2 km/h O-NO 5,42 h 1,8 UV-I 265 W/m 25,4 km/h
19.03.2018 -0,8 C 51 % 1015,2 hPa 0,0 l/m 5,7 km/h O-NO 9,67 h 2,1 UV-I 349 W/m 11,3 km/h
20.03.2018 1,6 C 63 % 1021,5 hPa 0,6 l/m 4,6 km/h W-SW 6,00 h 2,2 UV-I 299 W/m 10,9 km/h
21.03.2018 2,0 C 75 % 1027,0 hPa 0,0 l/m 6,5 km/h SW 7,42 h 1,9 UV-I 284 W/m 13,0 km/h
22.03.2018 4,8 C 93 % 1013,2 hPa 0,8 l/m 10,4 km/h W-SW 0,00 h 0,5 UV-I 41 W/m 17,4 km/h
23.03.2018 6,4 C 89 % 1005,6 hPa 0,2 l/m 2,1 km/h W-SW 0,00 h 0,8 UV-I 73 W/m 4,9 km/h
24.03.2018 5,8 C 77 % 1003,9 hPa 0,0 l/m 3,5 km/h O 4,58 h 1,7 UV-I 234 W/m 6,5 km/h
25.03.2018 7,9 C 62 % 1008,6 hPa 0,0 l/m 2,6 km/h O-NO 5,58 h 2,0 UV-I 275 W/m 4,9 km/h
26.03.2018 6,0 C 73 % 1015,1 hPa 0,0 l/m 3,4 km/h W-SW 7,25 h 2,1 UV-I 311 W/m 6,1 km/h
27.03.2018 7,1 C 75 % 1010,6 hPa 0,0 l/m 3,6 km/h O-NO 3,17 h 1,8 UV-I 238 W/m 7,3 km/h
28.03.2018 7,8 C 88 % 998,3 hPa 6,6 l/m 6,5 km/h W-SW 0,08 h 1,0 UV-I 78 W/m 14,2 km/h
29.03.2018 4,5 C 84 % 1006,4 hPa 0,6 l/m 6,5 km/h W-SW 2,92 h 1,4 UV-I 181 W/m 13,4 km/h
30.03.2018 9,1 C 65 % 1001,5 hPa 0,0 l/m 6,1 km/h O 6,50 h 2,2 UV-I 317 W/m 15,8 km/h
31.03.2018 7,5 C 80 % 999,9 hPa 0,8 l/m 2,8 km/h W 1,17 h 1,5 UV-I 173 W/m 7,7 km/h
01.04.2018 4,4 C 80 % 1009,1 hPa 0,2 l/m 4,3 km/h W 1,58 h 1,2 UV-I 140 W/m 7,7 km/h
02.04.2018 9,5 C 67 % 1006,0 hPa 0,2 l/m 8,4 km/h SW 3,58 h 1,7 UV-I 220 W/m 17,4 km/h
03.04.2018 14,1 C 66 % 1001,6 hPa 0,8 l/m 6,3 km/h SW 3,50 h 1,8 UV-I 194 W/m 13,8 km/h
04.04.2018 11,8 C 72 % 1001,3 hPa 1,0 l/m 3,9 km/h SW 1,33 h 1,1 UV-I 119 W/m 11,4 km/h
05.04.2018 6,8 C 77 % 1013,8 hPa 0,4 l/m 9,8 km/h SW 0,33 h 1,0 UV-I 96 W/m 17,4 km/h
06.04.2018 9,0 C 53 % 1020,1 hPa 0,0 l/m 5,0 km/h O 11,00 h 2,7 UV-I 413 W/m 10,1 km/h
07.04.2018 15,9 C 41 % 1011,3 hPa 0,0 l/m 4,7 km/h O 11,00 h 2,9 UV-I 413 W/m 8,9 km/h
08.04.2018 19,3 C 39 % 1006,6 hPa 0,0 l/m 5,5 km/h O 9,33 h 2,8 UV-I 373 W/m 12,6 km/h
09.04.2018 18,0 C 53 % 1003,0 hPa 0,0 l/m 4,0 km/h O 6,58 h 2,1 UV-I 281 W/m 6,9 km/h
10.04.2018 18,3 C 55 % 1002,5 hPa 0,0 l/m 6,1 km/h NO 7,67 h 2,6 UV-I 342 W/m 10,6 km/h
11.04.2018 13,5 C 78 % 1006,4 hPa 0,0 l/m 9,0 km/h NO 6,42 h 2,1 UV-I 286 W/m 15,8 km/h
12.04.2018 16,5 C 68 % 1001,2 hPa 0,0 l/m 8,5 km/h O-NO 5,92 h 2,6 UV-I 316 W/m 16,6 km/h
13.04.2018 12,5 C 87 % 1007,7 hPa 15,8 l/m 8,9 km/h W-SW 0,00 h 0,7 UV-I 49 W/m 17,0 km/h
14.04.2018 13,6 C 76 % 1017,3 hPa 0,0 l/m 4,0 km/h W-SW 5,83 h 2,6 UV-I 284 W/m 8,5 km/h
15.04.2018 14,9 C 78 % 1012,3 hPa 3,4 l/m 2,8 km/h O-NO 3,58 h 2,3 UV-I 221 W/m 6,5 km/h
16.04.2018 15,0 C 67 % 1015,8 hPa 0,0 l/m 4,2 km/h W 7,17 h 2,6 UV-I 319 W/m 8,1 km/h
17.04.2018 16,0 C 61 % 1025,6 hPa 0,0 l/m 2,4 km/h O-SO 10,25 h 3,1 UV-I 386 W/m 6,5 km/h
18.04.2018 18,9 C 54 % 1030,1 hPa 0,0 l/m 3,3 km/h O-NO 11,58 h 3,2 UV-I 415 W/m 7,3 km/h
19.04.2018 21,5 C 41 % 1026,9 hPa 0,0 l/m 8,3 km/h O 11,58 h 3,3 UV-I 422 W/m 15,8 km/h
20.04.2018 23,2 C 43 % 1021,0 hPa 0,0 l/m 4,0 km/h W 11,25 h 3,1 UV-I 408 W/m 8,6 km/h
21.04.2018 17,6 C 60 % 1019,7 hPa 0,0 l/m 2,2 km/h W 11,50 h 3,0 UV-I 403 W/m 6,5 km/h
22.04.2018 19,4 C 61 % 1011,7 hPa 3,0 l/m 9,3 km/h O-NO 6,83 h 3,0 UV-I 336 W/m 19,4 km/h
23.04.2018 15,4 C 67 % 1014,3 hPa 3,6 l/m 7,9 km/h W-SW 6,08 h 2,4 UV-I 310 W/m 15,8 km/h
Min-Datum 27.02.18 19.04.18 03.01.18 43 Tage 01.01.18 - - - - 01.01.18
Min-Zeit 07:15 13:50 08:55 - 22:11 - - - - 22:45
Minimum -9,6 C 22 % 984,1 hPa - 0,5 km/h - - - - 0,5 km/h
Max-Datum 20.04.18 21.01.18 25.02.18 03.01.18 18.01.18 - 18.04.18 15.04.18 11.04.18 18.01.18
Max-Zeit 16:10 08:20 09:55 06:25 12:55 - 19:30 14:10 13:30 12:35
Maximum 28,3 C 97 % 1032,0 hPa 17,2 l/m 51,2 km/h
W-SW
- 11,50 h 5,7 UV-I 925 W/m 92,2 km/h
W-SW
Durchschnitt 5,9 C 75 % 1011,7 hPa #134,6 l/m 7,1 km/h O-NO #417:06 h 1,4 UV-I 176 W/m 14,7 km/h

Durchschnitt Minimum Temp.2,8 C
Durchschnitt Maximum Temp.9,3 C

Jahr Standard-Abweichung:   + 5,89 K
Jahr Normal Wert:    0,00 C
Eistage (Tmax < 0C) :6
Frosttage (Tmin < 0C) :32
Kalte Tage (Tmax < 10C) :71
Sommertage (Tmax >= 25C) :5
Heie Tage (Tmax >= 30C) :0

Regen Tage
> 0,0 l/m42
> 2,0 l/m21
> 20,0 l/m0
Jahr Standard-Abweichung:   + 134,6 l/m
Jahr Normal Wert:    0,0 l/m

VerteilungWindrichtung
Windstille9,5 %
N-NO1,8 %
NO10,0 %
O-NO14,2 %
O13,4 %
O-SO8,0 %
SO4,9 %
S-SO3,9 %
S4,0 %
S-SW5,7 %
SW11,0 %
W-SW11,3 %
W6,7 %
W-NW2,5 %
NW1,4 %
N-NW0,6 %
N0,6 %